TimePDT,TemperatureF,Dew PointF,Humidity,Sea Level PressureIn,VisibilityMPH,Wind Direction,Wind SpeedMPH,Gust SpeedMPH,PrecipitationIn,Events,Conditions,WindDirDegrees,DateUTC
12:15 AM,59.0,37.4,45,30.02,10.0,NW,16.1,20.7,N/A,,Clear,320,2013-10-03 07:15:00
12:35 AM,59.0,37.4,45,30.02,10.0,NW,13.8,-,N/A,,Clear,320,2013-10-03 07:35:00
12:55 AM,59.0,37.4,45,30.02,10.0,NW,12.7,-,N/A,,Clear,320,2013-10-03 07:55:00
1:15 AM,57.2,37.4,48,30.02,10.0,NW,17.3,-,N/A,,Clear,320,2013-10-03 08:15:00
1:35 AM,57.2,37.4,48,30.03,10.0,NNW,12.7,-,N/A,,Clear,330,2013-10-03 08:35:00
1:55 AM,57.2,37.4,48,30.03,10.0,NNW,12.7,20.7,N/A,,Clear,330,2013-10-03 08:55:00
2:15 AM,57.2,37.4,48,30.04,10.0,NW,10.4,-,N/A,,Clear,320,2013-10-03 09:15:00
2:35 AM,57.2,37.4,48,30.04,10.0,NNW,16.1,21.9,N/A,,Clear,330,2013-10-03 09:35:00
2:55 AM,57.2,37.4,48,30.04,10.0,NW,16.1,-,N/A,,Clear,320,2013-10-03 09:55:00
3:15 AM,57.2,37.4,48,30.05,10.0,NW,16.1,-,N/A,,Clear,320,2013-10-03 10:15:00
3:35 AM,57.2,37.4,48,30.04,10.0,NNW,11.5,17.3,N/A,,Clear,330,2013-10-03 10:35:00
3:55 AM,57.2,37.4,48,30.05,10.0,NNW,15.0,19.6,N/A,,Clear,330,2013-10-03 10:55:00
4:15 AM,57.2,37.4,48,30.05,10.0,NW,13.8,-,N/A,,Clear,320,2013-10-03 11:15:00
4:35 AM,55.4,37.4,51,30.05,10.0,NW,11.5,-,N/A,,Clear,310,2013-10-03 11:35:00
4:55 AM,55.4,37.4,51,30.05,10.0,NNW,12.7,-,N/A,,Clear,330,2013-10-03 11:55:00
5:15 AM,55.4,37.4,51,30.05,10.0,NNW,11.5,-,N/A,,Clear,330,2013-10-03 12:15:00
5:35 AM,55.4,37.4,51,30.05,10.0,NNW,12.7,-,N/A,,Clear,330,2013-10-03 12:35:00
5:55 AM,55.4,37.4,51,30.05,10.0,NNW,10.4,-,N/A,,Clear,340,2013-10-03 12:55:00
6:15 AM,55.4,35.6,47,30.06,10.0,NW,13.8,20.7,N/A,,Clear,320,2013-10-03 13:15:00
6:35 AM,55.4,35.6,47,30.06,10.0,NNW,12.7,-,N/A,,Clear,330,2013-10-03 13:35:00
6:55 AM,55.4,35.6,47,30.06,10.0,NNW,10.4,-,N/A,,Clear,330,2013-10-03 13:55:00
7:15 AM,53.6,35.6,51,30.06,10.0,NNW,10.4,-,N/A,,Clear,330,2013-10-03 14:15:00
7:35 AM,55.4,35.6,47,30.07,10.0,NNW,9.2,-,N/A,,Clear,330,2013-10-03 14:35:00
7:55 AM,55.4,35.6,47,30.08,10.0,NNW,12.7,-,N/A,,Clear,330,2013-10-03 14:55:00
8:15 AM,57.2,35.6,44,30.08,10.0,NNW,12.7,17.3,N/A,,Clear,330,2013-10-03 15:15:00
8:35 AM,57.2,35.6,44,30.08,10.0,NNW,11.5,-,N/A,,Clear,330,2013-10-03 15:35:00
8:55 AM,59.0,35.6,42,30.09,10.0,NNW,11.5,-,N/A,,Clear,330,2013-10-03 15:55:00
9:15 AM,59.0,35.6,42,30.09,10.0,NW,15.0,19.6,N/A,,Clear,320,2013-10-03 16:15:00
9:35 AM,59.0,35.6,42,30.09,10.0,NW,12.7,19.6,N/A,,Clear,320,2013-10-03 16:35:00
9:55 AM,62.6,35.6,37,30.09,10.0,NW,12.7,-,N/A,,Clear,320,2013-10-03 16:55:00
10:15 AM,62.6,35.6,37,30.09,10.0,NNW,10.4,-,N/A,,Clear,340,2013-10-03 17:15:00
10:35 AM,64.4,33.8,32,30.09,10.0,North,9.2,-,N/A,,Clear,350,2013-10-03 17:35:00
10:55 AM,66.2,32.0,28,30.08,10.0,NNW,12.7,-,N/A,,Clear,330,2013-10-03 17:55:00
11:15 AM,68.0,32.0,26,30.07,10.0,NNW,10.4,18.4,N/A,,Clear,330,2013-10-03 18:15:00
11:35 AM,68.0,32.0,26,30.07,10.0,NNW,11.5,-,N/A,,Clear,340,2013-10-03 18:35:00
11:55 AM,68.0,32.0,26,30.06,10.0,NNW,4.6,-,N/A,,Clear,330,2013-10-03 18:55:00
12:15 PM,69.8,32.0,25,30.05,10.0,NW,5.8,-,N/A,,Clear,310,2013-10-03 19:15:00
12:35 PM,71.6,32.0,23,30.04,10.0,WNW,10.4,-,N/A,,Clear,290,2013-10-03 19:35:00
12:55 PM,71.6,32.0,23,30.03,10.0,NW,8.1,-,N/A,,Clear,310,2013-10-03 19:55:00
1:15 PM,73.4,28.4,19,30.02,10.0,NW,9.2,-,N/A,,Clear,320,2013-10-03 20:15:00
1:35 PM,73.4,26.6,18,30.01,10.0,NNE,6.9,-,N/A,,Clear,30,2013-10-03 20:35:00
1:55 PM,75.2,23.0,14,30.00,10.0,NNE,16.1,20.7,N/A,,Clear,30,2013-10-03 20:55:00
2:15 PM,77.0,21.2,12,29.99,10.0,NNE,11.5,20.7,N/A,,Clear,20,2013-10-03 21:15:00
2:35 PM,77.0,23.0,13,29.99,10.0,NNW,12.7,19.6,N/A,,Clear,330,2013-10-03 21:35:00
2:55 PM,75.2,23.0,14,29.99,10.0,NE,10.4,16.1,N/A,,Clear,50,2013-10-03 21:55:00
3:15 PM,77.0,21.2,12,29.98,10.0,NNE,16.1,-,N/A,,Clear,30,2013-10-03 22:15:00
3:35 PM,77.0,19.4,12,29.98,10.0,NE,17.3,-,N/A,,Clear,50,2013-10-03 22:35:00
3:55 PM,77.0,19.4,12,29.98,10.0,NNE,15.0,21.9,N/A,,Clear,20,2013-10-03 22:55:00
4:15 PM,77.0,21.2,12,29.98,10.0,NNE,18.4,23.0,N/A,,Clear,30,2013-10-03 23:15:00
4:35 PM,77.0,21.2,12,29.97,10.0,NNE,17.3,20.7,N/A,,Clear,20,2013-10-03 23:35:00
4:55 PM,75.2,21.2,13,29.97,10.0,NNE,18.4,-,N/A,,Clear,20,2013-10-03 23:55:00
5:15 PM,75.2,23.0,14,29.98,10.0,North,15.0,-,N/A,,Clear,10,2013-10-04 00:15:00
5:35 PM,75.2,23.0,14,29.98,10.0,North,17.3,21.9,N/A,,Clear,10,2013-10-04 00:35:00
5:55 PM,73.4,23.0,15,29.98,10.0,NNE,13.8,-,N/A,,Clear,20,2013-10-04 00:55:00
6:15 PM,71.6,26.6,19,29.98,10.0,NNE,12.7,-,N/A,,Clear,20,2013-10-04 01:15:00
6:35 PM,69.8,24.8,18,29.98,10.0,North,12.7,-,N/A,,Clear,10,2013-10-04 01:35:00
6:55 PM,68.0,24.8,20,29.98,10.0,North,10.4,20.7,N/A,,Clear,10,2013-10-04 01:55:00
7:15 PM,66.2,24.8,21,29.98,10.0,North,11.5,16.1,N/A,,Clear,360,2013-10-04 02:15:00
7:35 PM,66.2,26.6,23,29.98,10.0,North,9.2,-,N/A,,Clear,360,2013-10-04 02:35:00
7:55 PM,68.0,23.0,18,29.99,10.0,North,13.8,-,N/A,,Clear,350,2013-10-04 02:55:00
8:15 PM,68.0,24.8,20,29.99,10.0,North,10.4,-,N/A,,Clear,360,2013-10-04 03:15:00
8:35 PM,66.2,24.8,21,30.00,10.0,NNW,12.7,16.1,N/A,,Clear,330,2013-10-04 03:35:00
9:35 PM,68.0,26.6,21,30.00,10.0,NNE,17.3,26.5,N/A,,Clear,20,2013-10-04 04:35:00
9:55 PM,69.8,24.8,18,30.00,10.0,North,19.6,25.3,N/A,,Clear,10,2013-10-04 04:55:00
10:15 PM,69.8,24.8,18,30.00,10.0,North,20.7,27.6,N/A,,Clear,360,2013-10-04 05:15:00
10:35 PM,68.0,24.8,20,30.01,10.0,North,13.8,20.7,N/A,,Clear,10,2013-10-04 05:35:00
10:55 PM,66.2,26.6,23,30.01,10.0,NNE,13.8,-,N/A,,Clear,20,2013-10-04 05:55:00
11:15 PM,66.2,24.8,21,30.01,10.0,North,11.5,-,N/A,,Clear,360,2013-10-04 06:15:00
11:35 PM,66.2,24.8,21,30.01,10.0,North,11.5,-,N/A,,Clear,10,2013-10-04 06:35:00
11:55 PM,66.2,24.8,21,30.01,10.0,NNE,11.5,16.1,N/A,,Clear,20,2013-10-04 06:55:00